Weather History for KPKV - September, 2013

Change the Weather History Date:

Wednesday, September 4, 2013

  Actual Average (KVCT) Record (KVCT)
Temperature  
Mean Temperature 82 °F 82 °F  
Max Temperature 91 °F 93 °F 110 °F (2000)
Min Temperature 73 °F 72 °F 61 °F (1974)
Degree Days  
Heating Degree Days 0 0  
Month to date heating degree days 0  
Since 1 July heating degree days 0  
Cooling Degree Days 17 17  
Month to date cooling degree days 71  
Year to date cooling degree days 2424  
Growing Degree Days 32 (Base 50)    
Moisture  
Dew Point 73 °F    
Average Humidity 77    
Maximum Humidity 93    
Minimum Humidity 47    
Precipitation  
Precipitation 0.00 in 0.16 in 0.80 in (2001)
Month to date precipitation 0.59  
Year to date precipitation 27.46  
Snow  
Snow 0.00 in - - ()
Month to date snowfall  
Since 1 July snowfall  
Since 1 September snowfall  
Snow Depth -    
Sea Level Pressure  
Sea Level Pressure 29.98 in    
Wind  
Wind Speed 5 mph (SE)    
Max Wind Speed 15 mph    
Max Gust Speed 16 mph    
Visibility 10 miles    
Events      
T = Trace of Precipitation, MM = Missing Value Source: NWS Daily Summary

Daily Weather History Graph

Daily Weather History Graph

Search for Another Location

Airport or City:

Trip Planner

Search our weather history database for the weather conditions in past years. The results will help you decide how hot, cold, wet, or windy it might be!

Date:

Astronomy

Sep. 04, 2013 Rise Set
Actual Time 7:06 AM CDT 7:44 PM CDT
Civil Twilight 6:42 AM CDT 8:08 PM CDT
Nautical Twilight 6:14 AM CDT 8:36 PM CDT
Astronomical Twilight 5:45 AM CDT 9:04 PM CDT
Moon 6:19 AM CDT 7:07 PM CDT
Length of Visible Light 13h 25m
Length of Day
12h 37m
Waning Crescent, 1% of the Moon is Illuminated
Sep 4
Waning Crescent
Sep 5
New
Sep 12
First Quarter
Sep 19
Full
Sep 26
Last Quarter

Hourly Weather History & Observations

Time (CDT) Temp. Heat Index Dew Point Humidity Pressure Visibility Wind Dir Wind Speed Gust Speed Precip Events Conditions
12:15 AM 77.5 °F - 73.4 °F 87% 29.94 in 10.0 mi South 4.6 mph - N/A   Clear
12:35 AM 77.2 °F - 73.4 °F 88% 29.93 in 10.0 mi South 3.5 mph - N/A   Clear
12:55 AM 77.0 °F - 73.4 °F 89% 29.94 in 10.0 mi South 3.5 mph - N/A   Clear
1:15 AM 77.4 °F - 73.4 °F 88% 29.94 in 10.0 mi SSW 3.5 mph - N/A   Clear
1:35 AM 77.4 °F - 73.4 °F 88% 29.94 in 10.0 mi South 3.5 mph - N/A   Clear
1:55 AM 77.0 °F - 73.4 °F 89% 29.93 in 10.0 mi SSW 3.5 mph - N/A   Clear
2:15 AM 77.4 °F - 73.6 °F 88% 29.94 in 10.0 mi SSW 3.5 mph - N/A   Clear
2:35 AM 76.5 °F - 73.4 °F 90% 29.94 in 10.0 mi Calm Calm - N/A   Clear
2:55 AM 76.3 °F - 73.4 °F 91% 29.94 in 10.0 mi South 3.5 mph - N/A   Clear
3:15 AM 76.6 °F - 73.6 °F 90% 29.94 in 10.0 mi SSW 3.5 mph - N/A   Clear
3:35 AM 76.3 °F - 73.6 °F 91% 29.94 in 10.0 mi South 3.5 mph - N/A   Clear
3:55 AM 76.5 °F - 73.6 °F 91% 29.94 in 10.0 mi Calm Calm - N/A   Clear
4:15 AM 76.3 °F - 73.6 °F 91% 29.94 in 10.0 mi Calm Calm - N/A   Clear
4:35 AM 76.1 °F - 73.4 °F 91% 29.94 in 10.0 mi Calm Calm - N/A   Clear
4:55 AM 76.1 °F - 73.6 °F 92% 29.95 in 10.0 mi Calm Calm - N/A   Clear
5:15 AM 75.0 °F - 72.5 °F 92% 29.95 in 10.0 mi NW 4.6 mph - N/A   Clear
5:35 AM 74.3 °F - 72.0 °F 92% 29.96 in 10.0 mi NNW 4.6 mph - N/A   Clear
5:55 AM 73.9 °F - 71.8 °F 93% 29.96 in 10.0 mi NNW 4.6 mph - N/A   Clear
6:15 AM 73.9 °F - 71.8 °F 93% 29.98 in 10.0 mi NNW 4.6 mph - N/A   Clear
6:35 AM 73.9 °F - 71.6 °F 92% 29.98 in 10.0 mi NNW 4.6 mph - N/A   Clear
6:55 AM 74.7 °F - 72.3 °F 92% 29.99 in 10.0 mi NW 3.5 mph - N/A   Clear
7:15 AM 73.9 °F - 71.6 °F 92% 30.00 in 10.0 mi NNW 4.6 mph - N/A   Clear
7:35 AM 74.7 °F - 72.5 °F 93% 30.00 in 10.0 mi NNW 5.8 mph - N/A   Clear
7:55 AM 75.2 °F - 73.0 °F 93% 30.00 in 10.0 mi NNW 4.6 mph - N/A   Clear
8:15 AM 76.5 °F - 74.3 °F 93% 30.02 in 10.0 mi NNW 5.8 mph - N/A   Clear
8:35 AM 78.1 °F - 74.8 °F 90% 30.02 in 10.0 mi NNW 4.6 mph - N/A   Clear
9:35 AM 83.1 °F 91.0 °F 75.7 °F 78% 30.03 in 10.0 mi NNW 4.6 mph - N/A   Clear
9:55 AM 83.1 °F 90.7 °F 75.2 °F 77% 30.04 in 10.0 mi NW 3.5 mph - N/A   Scattered Clouds
10:15 AM 84.4 °F 92.4 °F 74.8 °F 73% 30.03 in 10.0 mi Calm Calm - N/A   Scattered Clouds
10:35 AM 84.4 °F 91.0 °F 73.0 °F 69% 30.03 in 10.0 mi West 3.5 mph - N/A   Clear
11:15 AM 85.3 °F 91.8 °F 72.9 °F 66% 30.03 in 10.0 mi NNW 3.5 mph - N/A   Clear
11:55 AM 88.2 °F 96.9 °F 73.9 °F 63% 30.03 in 10.0 mi ESE 3.5 mph - N/A   Scattered Clouds
12:35 PM 90.7 °F 94.5 °F 68.0 °F 47% 30.02 in 10.0 mi ESE 6.9 mph - N/A   Clear
12:55 PM 90.7 °F 94.5 °F 68.2 °F 47% 30.02 in 10.0 mi East 5.8 mph - N/A   Clear
1:15 PM 90.7 °F 94.5 °F 67.8 °F 47% 30.02 in 10.0 mi ENE 5.8 mph - N/A   Clear
1:35 PM 89.8 °F 93.8 °F 68.2 °F 49% 30.01 in 10.0 mi Calm Calm - N/A   Clear
1:55 PM 89.1 °F 96.5 °F 72.3 °F 58% 30.00 in 10.0 mi ESE 6.9 mph - N/A   Clear
2:15 PM 90.7 °F 98.5 °F 72.3 °F 55% 30.00 in 10.0 mi ESE 4.6 mph - N/A   Clear
2:55 PM 91.2 °F 99.1 °F 72.5 °F 54% 29.98 in 10.0 mi ESE 8.1 mph - N/A   Clear
3:15 PM 90.9 °F 98.3 °F 72.1 °F 54% 29.98 in 10.0 mi ESE 11.5 mph - N/A   Clear
3:35 PM 90.7 °F 98.5 °F 72.7 °F 55% 29.98 in 10.0 mi SE 9.2 mph - N/A   Clear
3:55 PM 90.5 °F 98.1 °F 72.1 °F 55% 29.97 in 10.0 mi ESE 15.0 mph - N/A   Clear
4:15 PM 90.5 °F 97.5 °F 71.6 °F 54% 29.96 in 10.0 mi SE 11.5 mph - N/A   Clear
4:35 PM 90.3 °F 95.2 °F 69.4 °F 50% 29.95 in 10.0 mi SE 9.2 mph - N/A   Clear
5:15 PM 90.0 °F 95.0 °F 69.6 °F 51% 29.95 in 10.0 mi SE 9.2 mph - N/A   Clear
5:35 PM 89.6 °F 96.6 °F 72.0 °F 56% 29.95 in 10.0 mi SE 11.5 mph 16.1 mph N/A   Clear
5:55 PM 88.5 °F 95.3 °F 72.1 °F 58% 29.95 in 10.0 mi ESE 11.5 mph - N/A   Clear
6:15 PM 87.3 °F 94.5 °F 73.0 °F 62% 29.96 in 10.0 mi SE 13.8 mph - N/A   Clear
6:35 PM 86.9 °F 95.4 °F 74.3 °F 66% 29.96 in 10.0 mi ESE 13.8 mph - N/A   Clear
6:55 PM 86.2 °F 94.6 °F 74.3 °F 68% 29.95 in 10.0 mi SE 12.7 mph - N/A   Clear
7:15 PM 85.3 °F 92.2 °F 73.4 °F 67% 29.96 in 10.0 mi SE 11.5 mph - N/A   Clear
7:35 PM 84.2 °F 91.6 °F 74.3 °F 72% 29.96 in 10.0 mi SE 9.2 mph - N/A   Clear
7:55 PM 82.8 °F 89.2 °F 74.3 °F 75% 29.97 in 10.0 mi SE 5.8 mph - N/A   Clear
8:15 PM 82.0 °F 88.4 °F 74.5 °F 78% 29.98 in 10.0 mi SSE 4.6 mph - N/A   Clear
8:35 PM 81.1 °F 87.0 °F 74.7 °F 81% 29.98 in 10.0 mi SSE 4.6 mph - N/A   Clear
8:55 PM 80.6 °F 85.7 °F 74.3 °F 81% 29.99 in 10.0 mi SE 4.6 mph - N/A   Clear
9:15 PM 80.4 °F 85.3 °F 74.1 °F 81% 29.99 in 10.0 mi SE 4.6 mph - N/A   Clear
9:35 PM 79.9 °F - 74.3 °F 83% 30.01 in 10.0 mi SE 3.5 mph - N/A   Clear
9:55 PM 79.9 °F - 74.3 °F 83% 30.01 in 10.0 mi SSE 4.6 mph - N/A   Clear
10:15 PM 79.2 °F - 74.3 °F 85% 30.02 in 10.0 mi SSE 4.6 mph - N/A   Clear
10:35 PM 79.9 °F - 74.7 °F 84% 30.02 in 10.0 mi Calm Calm - N/A   Clear
10:55 PM 80.6 °F 86.0 °F 74.8 °F 83% 30.02 in 10.0 mi SSW 3.5 mph - N/A   Clear
11:15 PM 80.1 °F 84.8 °F 74.7 °F 83% 30.02 in 10.0 mi Calm Calm - N/A   Clear
11:35 PM 79.5 °F - 74.7 °F 85% 30.02 in 10.0 mi Calm Calm - N/A   Clear
11:55 PM 79.2 °F - 74.7 °F 86% 30.02 in 10.0 mi Calm Calm - N/A   Clear